sat.trackr.live / text

‹ back to catalog

STARLINK-32956

NORAD 63570 · 2025-076B

PAYLOAD ACTIVE UNKNOWN

§ Identity

Operator
Country
US
Launch date
2025-04-14
Launch site
AFETR
Launch vehicle
Mass (kg)
RCS (m²)

Purposes: comms

External: N2YO · Heavens-Above · Gunter

§ Orbital elements

Epoch: 2026-09-20T19:12:07.026048Z

Period
94.27 min
Inclination
43.0007°
Eccentricity
0.0001215
Mean motion
15.27572671 rev/d
Perigee alt
482.2 km
Apogee alt
483.9 km
Semi-major
6,861.2 km
B*
5.7681e-4
RAAN
303.0304°
Arg perigee
273.3785°
Mean anomaly
86.6927°
Rev number
8,162

§ Raw data

STARLINK-329561 63570U 25076B   26263.80008132  .00015641  00000+0  57681-3 0  99982 63570  43.0007 303.0304 0001215 273.3785  86.6927 15.27572671 81622

JSON: /api/v1/satellites/63570 · /tle

For live sub-satellite position, see the globe view (requires WebGL).

§ Visibility from observer

Set your observer location to see the next 7 days of passes ≥ 10°. The values pass through the URL so the page stays shareable.

No JS? Fill the form by hand. The geolocation button needs JavaScript.